Starlink 30864

operational
NORAD ID: 58243 Int'l Des: 2023-171 Owner: SPXS Country: US Constellation: starlink
LEOCIRCULAR

About Starlink 30864

Description loading...

Live Position

Loading 3D Globe...

Upcoming Passes

Altitude History

Altitude vs Time

uPlot chart will show altitude changes over time

Two-Line Element Set

1 58243U 23171P 26049.03725655 -.00000191 00000-0 95051-6 0 9998
2 58243 43.0041 32.4042 0001047 262.5200 97.5524 15.02531302126676
Epoch: Feb 18, 2026 • Age: 30 hours

Current Status

Altitude 558.4 km
Velocity 7.59 km/s
Sub-Earth Point 14.00°N, 142.18°E
Launch Date Nov 8, 2023
Age 2.2 years
Type internet

Technical Details

Classification Payload
Mass 730.00 kg
Dry Mass 700.00 kg
Total Mass 730.00 kg
Length 0.30 m
Diameter 4.10 m
Span 29.00 m
Shape Box + pan
Manufacturer SPXS
Bus Type Starlink V2M
Phase Status In Orbit
Owner/State SPXS/US

Large Constellations

Loading constellations...